EHI
6 4 3 2 0 0 0 0 0 0 0 0 0 0 0 0 0 0 0 0 0 0 0 0 0 0 0 0 0 0 0 0 0 0 0 0 1 2 2 1 0 0 0
6 4 3 2 0 0 0 0 0 0 0 0 0 0 0 0 0 0 0 0 0 0 0 0 0 0 0 0 0 0 0 0 0 0 0 0 0 1 1 0 0 0 0
4 2 2 1 0 0 0 0 0 0 0 0 0 0 0 0 0 0 0 0 0 0 0 0 0 0 0 0 0 0 0 0 0 0 0 0 0 0 0 0 0 0 0
3 2 2 1 0 0 0 0 0 0 0 0 0 0 0 0 0 0 0 0 0 0 0 0 0 0 0 0 0 0 0 0 0 0 0 0 0 0 0 0 0 0 0
4 5 4 2 0 0 0 0 0 0 0 0 0 0 0 0 0 0 0 0 0 0 0 0 0 0 0 0 0 0 0 1 1 0 0 0 0 0 0 0 0 0 0
7 7 6 4 2 0 0 0 0 0 0 0 0 0 0 0 0 0 0 0 0 0 0 0 0 0 0 0 0 0 1 3 3 1 1 1 0 0 0 0 0 0 0
13 10 8 7 4 1 0 0 0 0 0 0 0 0 0 0 0 0 0 0 0 0 0 0 0 0 0 0 0 0 3 6 5 2 3 2 1 0 0 0 0 0 0
18 13 8 7 4 1 0 0 0 0 0 0 0 0 0 0 0 0 0 0 0 0 0 0 0 0 0 0 0 1 6 10 6 3 4 3 1 1 1 0 0 0 0
16 11 7 6 4 1 0 0 0 0 0 0 0 0 0 0 0 0 0 0 0 0 0 0 0 0 0 0 1 3 8 12 8 3 3 2 1 2 2 1 0 0 0
10 8 7 8 7 5 3 1 1 1 1 0 1 2 1 0 0 0 0 0 0 0 0 0 0 0 0 1 2 5 9 11 7 3 2 2 2 2 2 1 0 0 0
8 7 7 9 10 9 7 6 5 3 2 1 2 4 4 2 2 2 3 2 1 0 1 1 2 1 1 2 5 8 11 9 5 3 3 3 2 1 1 0 0 0 0
11 9 8 10 11 9 10 12 10 8 7 4 4 7 7 5 5 7 7 4 1 0 2 5 6 5 4 4 6 9 9 6 3 2 3 5 4 1 1 0 0 0 0
13 11 11 13 12 9 11 12 12 13 12 9 8 9 6 4 6 10 10 5 2 0 2 6 7 6 5 4 4 5 6 4 2 1 2 5 5 4 3 1 0 0 0
12 13 18 23 21 17 13 11 11 14 12 12 15 13 7 4 5 10 11 7 3 1 2 4 4 3 3 2 1 2 4 3 1 0 2 5 8 8 5 3 1 0 0
16 18 26 33 32 25 18 14 13 13 10 14 20 19 12 7 6 9 11 9 4 2 4 4 2 1 1 1 0 0 1 1 1 1 3 8 11 11 8 5 3 2 1
22 24 31 38 37 30 22 18 15 12 13 18 26 28 21 14 12 12 11 9 5 4 6 7 4 2 2 1 0 1 1 1 2 3 6 9 12 13 12 9 7 5 4
32 34 35 37 39 35 26 19 13 12 17 25 33 37 30 20 16 14 12 9 6 6 10 10 6 3 2 1 1 2 4 5 6 6 10 13 14 13 14 13 12 11 9
51 49 42 39 46 45 33 22 15 17 26 32 35 39 35 23 17 16 13 11 9 9 12 12 8 5 3 1 1 4 8 11 12 11 12 17 19 17 16 17 18 18 16
69 65 53 48 55 54 42 32 25 27 36 38 36 38 37 29 21 16 15 14 13 14 14 12 12 11 6 2 2 5 9 14 15 13 13 16 22 25 23 21 22 22 21
80 77 66 59 61 60 53 46 40 38 42 43 41 42 43 37 28 19 16 16 16 15 15 14 16 16 11 6 2 3 7 11 15 15 14 14 19 25 29 30 27 22 20
85 84 77 70 69 67 62 55 50 47 47 46 47 50 51 42 32 24 18 18 19 16 15 16 17 15 12 9 4 2 3 7 11 16 17 15 14 19 28 36 34 26 22
87 86 82 80 78 73 66 59 54 52 51 50 53 58 56 45 35 27 22 20 20 19 18 19 19 14 10 9 9 6 2 3 6 11 17 16 14 17 25 32 38 38 35
84 84 84 85 84 79 70 62 56 55 55 54 56 57 54 46 36 29 25 23 22 23 23 23 22 18 12 10 12 11 5 2 3 6 10 15 17 19 20 24 33 42 45
82 83 85 86 86 82 74 67 61 58 57 56 55 53 49 43 35 31 29 27 26 25 24 23 22 22 17 12 14 14 8 3 2 2 5 10 17 19 19 18 25 36 41
82 84 85 85 83 80 76 71 66 60 55 53 52 50 47 41 35 31 30 31 30 26 22 21 23 25 21 15 14 15 12 8 5 3 2 5 9 15 17 17 19 26 32
83 85 85 83 80 78 77 74 69 61 53 50 50 51 48 43 37 31 30 32 31 25 20 20 25 26 20 15 14 15 15 13 11 5 1 1 4 8 14 17 18 21 24
Wind_Speed
15 14 13 13 13 13 14 13 14 14 14 14 14 15 15 15 15 15 15 15 15 15 15 15 15 15 15 16 16 16 16 16 16 17 17 16 16 14 14 15 15 13 16
18 15 14 14 13 14 14 13 13 13 13 13 13 14 14 14 14 14 14 14 15 15 15 15 14 14 15 15 14 14 14 15 15 16 17 15 15 13 12 13 14 11 15
18 16 14 13 14 14 13 13 13 13 13 13 13 13 13 13 13 13 13 14 14 15 14 14 14 14 14 13 12 12 12 12 13 14 14 11 12 14 15 16 15 15 14
18 15 14 14 14 13 13 13 13 12 12 12 12 12 12 12 12 13 13 13 13 14 14 14 14 14 13 11 10 9 8 8 8 9 7 9 9 14 14 14 14 14 14
18 16 15 15 14 13 13 12 12 12 12 12 12 12 12 12 12 12 12 12 13 13 13 13 13 13 12 10 8 6 5 4 5 6 9 9 8 12 14 13 13 13 13
18 17 15 15 14 13 12 12 12 11 11 11 12 11 11 11 11 12 12 12 12 12 12 12 12 12 10 9 6 4 1 0 1 6 9 10 8 11 13 13 12 12 12
19 17 15 14 14 13 12 11 11 11 11 11 11 11 11 11 11 11 11 11 11 12 12 12 11 10 9 7 4 2 1 3 1 7 8 9 9 11 12 12 11 12 11
19 17 15 14 14 13 12 11 11 10 10 10 10 10 10 10 10 10 10 10 11 11 11 10 10 9 7 5 2 2 4 6 4 10 10 9 10 11 12 11 10 11 11
19 17 14 13 12 12 12 11 10 10 9 9 9 9 9 9 10 10 10 10 10 10 10 9 9 8 6 3 0 3 5 7 1 6 11 8 11 11 11 11 10 10 10
16 16 14 14 13 11 11 11 11 10 9 9 9 9 9 9 9 10 10 9 9 9 9 8 8 7 5 2 2 4 7 7 1 7 8 9 12 11 11 10 10 9 9
12 12 13 14 12 12 12 12 11 10 9 9 8 9 8 6 8 7 10 9 8 8 8 7 7 6 5 4 5 6 6 3 4 7 7 12 12 11 10 10 9 9 9
10 10 9 10 10 10 9 10 8 8 8 6 5 7 5 3 4 8 10 9 8 7 7 7 7 7 6 4 6 6 4 2 4 6 8 14 12 11 10 9 9 9 8
8 8 10 10 7 7 6 7 5 4 5 5 5 5 3 3 4 6 5 6 5 6 5 6 6 5 5 3 2 3 2 0 3 6 8 13 12 11 10 9 9 9 8
7 7 9 10 6 3 4 4 5 4 4 4 4 4 4 2 2 3 3 4 4 3 3 3 3 3 2 2 1 1 1 1 4 5 7 13 12 11 10 10 9 9 8
7 6 7 7 6 4 2 0 2 3 4 4 4 3 3 3 3 2 1 1 2 2 3 2 2 2 1 1 2 1 0 1 3 6 6 12 12 11 11 11 10 10 10
8 7 7 8 6 4 3 1 0 2 2 3 3 4 3 2 2 3 2 1 1 2 2 2 2 2 2 2 2 1 1 1 1 5 7 8 12 12 11 11 11 11 11
9 7 7 7 7 5 5 4 4 3 4 3 3 4 3 3 3 2 2 2 2 1 1 1 2 1 2 3 3 2 2 2 2 3 6 6 7 11 13 12 12 12 12
9 8 7 7 9 6 4 4 3 3 3 3 3 4 4 3 3 2 2 2 2 2 2 2 2 2 2 2 2 3 3 3 3 3 4 6 6 8 11 15 14 13 13
9 8 7 5 7 7 6 4 4 2 1 2 3 3 4 4 4 3 2 2 3 2 2 3 3 2 2 2 2 3 3 3 4 5 5 6 7 7 7 12 16 15 16
9 8 8 6 6 6 5 4 3 3 2 2 3 3 5 4 5 4 3 3 3 2 2 2 1 2 2 2 4 3 3 4 4 4 5 5 5 7 8 9 10 11 16
10 9 8 7 6 5 4 4 4 4 3 3 4 5 6 6 6 5 4 3 4 3 3 3 2 3 3 3 2 3 3 4 4 4 4 4 5 6 6 8 8 7 8
11 10 9 8 8 7 4 3 3 3 3 4 4 4 5 6 6 6 5 4 5 3 4 4 3 2 3 3 2 2 2 2 3 6 5 5 5 4 5 7 8 7 6
12 11 9 9 8 7 6 4 3 2 2 2 2 3 4 5 5 5 6 5 4 5 4 5 5 5 3 3 3 2 2 2 2 2 3 3 3 3 3 4 6 7 7
12 11 9 9 8 7 6 5 5 4 4 3 2 2 3 4 5 6 6 6 5 4 4 6 6 5 4 3 3 3 3 1 1 2 2 1 3 3 3 4 4 5 5
12 11 9 9 7 7 6 6 5 4 3 2 2 2 3 3 4 5 5 4 4 4 5 5 4 4 4 4 3 3 3 3 4 3 3 2 2 1 2 2 2 3 5
10 10 10 9 7 7 6 6 5 4 3 2 2 2 3 2 3 5 5 4 5 4 4 4 4 5 5 5 4 3 3 2 3 3 3 3 3 2 1 1 2 2 2
Wind_Direction
110 111 109 105 103 100 98 96 94 92 91 88 86 84 84 85 86 87 87 88 89 91 92 91 90 89 88 90 92 94 96 97 97 98 98 99 99 101 104 108 102 99 104
113 113 111 108 105 103 100 97 96 94 94 92 90 88 87 87 88 89 89 90 90 91 92 92 92 91 92 93 97 100 103 105 107 107 104 98 95 95 96 95 95 106 107
114 118 115 110 107 106 104 101 98 96 94 93 92 91 90 90 91 91 91 91 92 92 92 93 93 94 94 96 100 105 111 115 121 124 116 104 96 94 97 99 103 107 107
121 121 114 113 110 108 106 104 100 99 96 93 92 92 91 92 92 94 93 93 93 94 93 93 94 95 96 99 103 109 116 124 137 139 112 102 100 100 102 105 108 109 108
111 110 115 116 113 111 109 107 104 102 100 97 94 92 92 93 94 94 94 95 96 96 96 96 97 96 97 97 101 108 117 130 145 123 95 94 94 107 107 109 111 112 110
120 118 118 119 117 114 112 110 108 107 104 100 98 96 95 95 94 94 95 98 99 98 98 98 98 99 99 100 101 100 97 326 186 116 110 106 106 114 114 114 116 114 112
120 120 124 123 121 119 116 113 111 109 107 105 104 101 100 99 97 95 97 99 101 101 101 101 102 101 101 100 97 78 343 318 165 96 97 102 109 117 117 116 116 117 115
123 122 125 128 127 125 123 121 118 115 113 111 110 107 105 104 104 101 101 102 103 104 103 105 105 104 104 100 86 354 328 318 99 104 99 104 116 119 119 119 119 120 120
123 128 138 138 135 133 132 129 127 125 122 121 120 119 119 117 115 110 106 106 106 108 110 112 113 112 110 113 42 311 314 317 26 118 113 114 123 124 124 124 124 122 122
131 138 144 145 145 148 142 140 138 136 136 135 134 135 137 134 131 127 121 113 114 116 119 123 125 127 130 157 255 287 303 307 176 109 109 123 129 131 132 131 130 128 128
130 138 148 145 153 156 150 148 150 149 150 153 155 159 165 167 151 148 121 127 127 129 132 138 144 149 163 206 244 267 288 268 102 101 107 129 135 135 137 139 137 137 136
136 142 143 141 148 156 148 149 162 162 163 182 168 175 190 177 139 129 134 142 146 148 154 164 172 179 198 207 220 241 259 217 118 114 125 140 141 143 145 147 147 147 147
153 149 141 131 146 150 137 158 160 156 159 180 173 168 165 154 144 137 153 155 163 173 187 175 193 214 210 209 208 221 250 73 96 109 136 146 148 152 155 158 159 159 160
166 156 140 134 140 122 128 142 151 156 165 160 161 175 158 157 153 146 158 165 174 184 191 193 208 209 199 198 218 267 332 80 105 116 146 155 156 160 166 170 172 173 173
162 160 129 125 122 121 102 135 153 150 156 149 156 166 159 165 160 147 139 158 185 179 174 205 218 188 176 208 230 211 165 49 119 133 143 165 165 170 176 181 185 186 186
167 163 138 137 135 140 147 174 236 158 138 152 161 160 173 163 141 149 166 193 208 202 186 187 199 182 193 227 239 225 187 109 124 138 150 171 177 180 185 190 194 196 197
168 159 148 155 152 166 175 193 198 193 176 162 151 151 171 170 154 172 175 199 211 192 185 202 221 215 212 213 216 220 193 203 190 165 159 167 180 193 195 197 200 202 205
164 156 165 177 160 170 189 207 220 206 177 160 158 159 180 175 171 201 193 204 208 194 185 219 239 227 231 229 214 214 201 194 200 196 189 182 179 189 200 204 204 206 209
158 156 169 182 158 171 184 196 236 229 197 177 176 172 176 188 189 209 219 200 218 217 204 228 199 224 249 250 241 218 211 202 206 213 208 203 192 185 183 199 205 207 211
159 160 168 180 166 171 178 187 225 221 203 204 203 186 175 194 202 211 221 205 224 216 215 235 228 216 250 261 267 257 229 211 202 214 216 215 199 196 193 190 195 210 214
163 164 172 183 174 177 186 190 206 214 211 208 210 197 194 206 204 203 236 202 223 223 214 224 220 231 232 236 263 281 262 231 211 208 214 219 211 207 194 180 185 194 206
168 171 176 184 179 186 193 197 211 213 212 210 218 195 200 208 210 207 210 220 215 219 217 228 223 238 252 221 211 254 285 275 246 223 203 210 213 202 198 191 188 190 193
173 178 183 182 182 188 193 192 220 216 236 235 218 206 215 212 216 229 206 221 224 222 214 215 217 218 236 250 216 199 221 249 280 254 218 212 199 187 205 202 192 187 195
176 179 176 175 179 183 191 203 212 216 223 227 215 209 213 222 227 229 221 222 224 233 227 218 217 216 221 241 246 227 236 240 273 308 301 237 212 200 218 227 204 183 187
177 173 173 173 178 181 193 205 214 230 233 237 212 211 220 222 231 238 229 226 225 234 234 233 226 216 216 225 234 234 234 238 229 229 268 293 293 238 217 228 235 179 181
170 169 173 169 174 182 193 203 209 230 235 240 234 222 226 230 231 237 230 218 221 229 233 233 229 223 225 232 237 242 235 226 227 221 235 252 260 265 248 222 222 207 170